Location: Potomac
(46.8816°N, 113.5795°W)
Time: 03:20:07
(UTC+00:00)

Gurwin Techsat 1B - Visible Passes

Search period start: 29 June 2022 00:00
Search period end: 09 July 2022 00:00
Orbit: 811 x 814 km, 98.8° (Epoch: 28 June)

Date Brightness Start Highest point End Pass type
(mag) Time Alt. Az. Time Alt. Az. Time Alt. Az.
29 Jun 9.8 09:33:43 10° NNE 09:38:39 37° E 09:43:31 10° SSE visible
30 Jun 10.4 09:11:15 10° NE 09:15:31 24° E 09:19:45 10° SE visible
30 Jun 9.0 10:50:33 10° N 10:55:42 52° WNW 11:00:51 10° SW visible
01 Jul 10.9 08:49:14 10° NE 08:52:17 15° E 08:55:20 10° SE visible
01 Jul 8.6 10:27:30 10° NNE 10:32:50 80° WNW 10:38:09 10° SSW visible
02 Jul 8.9 10:04:34 10° NNE 10:09:53 67° ESE 10:15:01 11° S visible
03 Jul 9.5 09:41:48 10° NNE 09:46:52 43° E 09:51:45 11° S visible
04 Jul 10.2 09:19:13 10° NE 09:23:45 28° E 09:28:15 10° SSE visible
04 Jul 9.2 10:58:47 10° N 11:03:51 45° WNW 11:08:52 10° SW visible
05 Jul 10.8 08:57:00 10° NE 09:00:34 18° E 09:04:06 10° SE visible
05 Jul 8.7 10:35:41 10° N 10:41:00 70° WNW 10:46:16 10° SSW visible
06 Jul 11.1 08:35:52 10° ENE 08:37:17 11° E 08:38:42 10° ESE visible
06 Jul 8.7 10:12:43 10° NNE 10:18:04 78° ESE 10:23:11 11° S visible
07 Jul 9.3 09:49:53 10° NNE 09:55:04 50° E 09:59:54 12° S visible
08 Jul 10.0 09:27:14 10° NNE 09:31:59 32° E 09:36:38 10° SSE visible
08 Jul 9.4 11:07:02 10° N 11:11:58 39° WNW 11:16:52 10° SW visible
